{"data":{"norad_id":61724,"intl_designator":"2024-196T","name":"STARLINK-32528","alt_names":[],"object_type":"PAYLOAD","status":"ACTIVE","operator":null,"country":"US","launch_date":"2024-10-30","launch_site_code":"AFETR","launch_vehicle":null,"mission":null,"orbit_class":"UNKNOWN","rcs_meters":null,"size_class":null,"mass_kg":null,"dimensions":null,"purposes":["comms"],"wikipedia_slug":null,"has_3d_model":false,"image_url":null,"decayed_at":null,"tle_current":{"epoch":"2026-09-20T05:30:46.447200Z","epoch_age_seconds":212248,"freshness":"STALE","line1":"1 61724U 24196T   26263.22970425 -.00001979  00000+0 -47487-4 0  9993","line2":"2 61724  53.1607 274.7378 0001340  79.9654 280.1500 15.34376282105788","mean_motion":15.34376282,"eccentricity":0.000134,"inclination_deg":53.1607,"raan_deg":274.7378,"arg_perigee_deg":79.9654,"mean_anomaly_deg":280.15,"bstar":-4.7487e-5,"rev_number":10578,"period_min":93.849208756213,"perigee_km":461.8570539709,"apogee_km":463.69041804815,"semimajor_km":6840.9107360095,"source":"CELESTRAK","updated_at":"2026-09-22T09:00:49.438250Z"}}}